Tracking 22130 objects as of 21-Jan-2021
HD Live streaming from Space Station
objects crossing your sky now

SL-14 R/B

Track SL-14 R/B now!
10-day predictions


NORAD ID: 33505
Int'l Code: 2009-003B
Perigee: 525.5 km
Apogee: 561.1 km
Inclination: 82.4 °
Period: 95.4 minutes
Semi major axis: 6914 km
RCS: 4.113 m2 (large)
Launch date: January 30, 2009
Source: Commonwealth of Independent States (former USSR) (CIS)
Launch site: PLESETSK MISSILE AND SPACE COMPLEX (PKMTR)

Note: This is a ROCKET BODY
aabbcc
Your satellite tracking list
Your tracking list is empty




NASA's NSSDC Master Catalog

Two Line Element Set (TLE):
1 33505U 09003B   21021.43187751 -.00000220  00000-0 -15348-4 0  9991
2 33505  82.3923  15.3299 0025760 352.1899   7.8925 15.10002384659174
Source of the keplerian elements: AFSPC